Weather History for Perry, FL

Change the Weather History Date:

Wednesday, March 6, 2013

  Actual Average (KCTY) Record (KCTY)
Temperature  
Mean Temperature 50 °F 60 °F  
Max Temperature 62 °F 74 °F 96 °F (2002)
Min Temperature 37 °F 46 °F 30 °F (2007)
Degree Days  
Heating Degree Days 16 6  
Month to date heating degree days 38  
Since 1 July heating degree days 1158  
Cooling Degree Days 0 1  
Month to date cooling degree days 6  
Year to date cooling degree days 33  
Moisture  
Dew Point 32 °F    
Average Humidity 53    
Maximum Humidity 88    
Minimum Humidity 25    
Precipitation  
Precipitation 0.00 in 0.14 in 0.58 in (2014)
Month to date precipitation 0.76  
Year to date precipitation 8.07  
Sea Level Pressure  
Sea Level Pressure 30.10 in    
Wind  
Wind Speed 12 mph (NW)    
Max Wind Speed 21 mph    
Max Gust Speed 31 mph    
Visibility 10 miles    
Events      
T = Trace of Precipitation, MM = Missing Value Source: NWS Daily Summary

Daily Weather History Graph

Daily Weather History Graph

Search for Another Location

Airport:

Trip Planner

Search our weather history database for the weather conditions in past years. The results will help you decide how hot, cold, wet, or windy it might be!

Date:

Astronomy

Mar. 06, 2013 Rise Set
Actual Time 6:54 AM EST 6:36 PM EST
Civil Twilight 6:30 AM EST 7:00 PM EST
Nautical Twilight 6:02 AM EST 7:28 PM EST
Astronomical Twilight 5:35 AM EST 7:56 PM EST
Moon 2:44 AM EST (3/6) 1:34 PM EST (3/6)
Length of Visible Light 12h 30m
Length of Day
11h 42m
Waning Crescent, 30% of the Moon is Illuminated
Mar 6
Waning Crescent
Mar 11
New
Mar 19
First Quarter
Mar 27
Full
Apr 3
Last Quarter

Hourly Weather History & Observations

Time (EST) Temp. Windchill Dew Point Humidity Pressure Visibility Wind Dir Wind Speed Gust Speed Precip Events Conditions
12:15 AM 62.6 °F - 59.0 °F 88% 29.98 in 10.0 mi NW 20.7 mph 28.8 mph N/A   Mostly Cloudy
12:35 AM 60.8 °F - 57.2 °F 88% 29.99 in 10.0 mi NW 12.7 mph 26.5 mph N/A   Scattered Clouds
12:53 AM 57.0 °F - 48.0 °F 72% 29.99 in - NNW 18.4 mph 31.1 mph N/A   Unknown
12:55 AM 57.2 °F - 51.8 °F 82% 30.00 in 10.0 mi NNW 15.0 mph 27.6 mph N/A   Scattered Clouds
1:15 AM 55.4 °F - 46.4 °F 72% 30.01 in 10.0 mi NW 15.0 mph 25.3 mph N/A   Clear
1:35 AM 53.6 °F - 46.4 °F 77% 30.02 in 10.0 mi NW 12.7 mph 16.1 mph N/A   Clear
1:53 AM 52.0 °F - 42.1 °F 69% 30.02 in - NW 11.5 mph - N/A   Unknown
1:55 AM 51.8 °F - 44.6 °F 76% 30.03 in 10.0 mi NW 9.2 mph 16.1 mph N/A   Clear
2:15 AM 51.8 °F - 44.6 °F 76% 30.03 in 10.0 mi NW 11.5 mph - N/A   Clear
2:35 AM 50.0 °F - 42.8 °F 76% 30.04 in 10.0 mi NW 11.5 mph 20.7 mph N/A   Clear
2:53 AM 48.0 °F - 36.0 °F 63% 30.04 in - NW 15.0 mph 20.7 mph N/A   Unknown
2:55 AM 48.2 °F - 37.4 °F 66% 30.05 in 10.0 mi NW 15.0 mph 21.9 mph N/A   Clear
3:15 AM 46.4 °F 40.1 °F 33.8 °F 62% 30.05 in 10.0 mi NNW 15.0 mph 23.0 mph N/A   Clear
3:35 AM 46.4 °F 41.1 °F 33.8 °F 62% 30.05 in 10.0 mi NNW 11.5 mph 19.6 mph N/A   Clear
3:53 AM 45.0 °F 39.3 °F 30.9 °F 58% 30.04 in - NW 11.5 mph - N/A   Unknown
3:55 AM 46.4 °F 41.9 °F 33.8 °F 62% 30.05 in 10.0 mi NW 9.2 mph - N/A   Clear
4:15 AM 44.6 °F 40.2 °F 33.8 °F 66% 30.06 in 10.0 mi NW 8.1 mph - N/A   Clear
4:35 AM 44.6 °F 41.4 °F 33.8 °F 66% 30.06 in 10.0 mi NW 5.8 mph - N/A   Clear
4:53 AM 41.0 °F 39.0 °F 30.9 °F 67% 30.05 in - West 3.5 mph - N/A   Unknown
4:55 AM 42.8 °F 40.1 °F 33.8 °F 70% 30.06 in 10.0 mi West 4.6 mph - N/A   Clear
5:15 AM 41.0 °F 37.1 °F 33.8 °F 76% 30.07 in 10.0 mi WNW 5.8 mph - N/A   Clear
5:35 AM 41.0 °F 38.0 °F 33.8 °F 76% 30.08 in 10.0 mi West 4.6 mph - N/A   Clear
5:53 AM 39.0 °F 35.7 °F 30.9 °F 73% 30.08 in - West 4.6 mph - N/A   Unknown
5:55 AM 41.0 °F 38.0 °F 35.6 °F 81% 30.09 in 10.0 mi WNW 4.6 mph - N/A   Clear
6:15 AM 41.0 °F 36.4 °F 33.8 °F 76% 30.09 in 10.0 mi NW 6.9 mph - N/A   Clear
6:35 AM 39.2 °F 34.2 °F 35.6 °F 87% 30.10 in 10.0 mi WNW 6.9 mph - N/A   Clear
6:53 AM 39.0 °F 33.4 °F 32.0 °F 76% 30.09 in - WNW 8.1 mph - N/A   Unknown
6:55 AM 39.2 °F 33.6 °F 35.6 °F 87% 30.10 in 10.0 mi WNW 8.1 mph - N/A   Clear
7:15 AM 41.0 °F 36.4 °F 35.6 °F 81% 30.11 in 10.0 mi WNW 6.9 mph - N/A   Clear
7:35 AM 41.0 °F 35.2 °F 37.4 °F 87% 30.12 in 10.0 mi NW 9.2 mph - N/A   Clear
7:53 AM 44.1 °F 37.4 °F 30.0 °F 58% 30.12 in - WNW 13.8 mph - N/A   Unknown
7:55 AM 44.6 °F 38.1 °F 33.8 °F 66% 30.13 in 10.0 mi NW 13.8 mph 19.6 mph N/A   Clear
8:15 AM 46.4 °F 40.7 °F 32.0 °F 57% 30.13 in 10.0 mi NW 12.7 mph 18.4 mph N/A   Clear
8:35 AM 46.4 °F 39.5 °F 32.0 °F 57% 30.14 in 10.0 mi WNW 17.3 mph 21.9 mph N/A   Clear
8:53 AM 48.0 °F - 27.0 °F 44% 30.13 in - NW 12.7 mph 21.9 mph N/A   Unknown
8:55 AM 48.2 °F - 30.2 °F 50% 30.14 in 10.0 mi NNW 15.0 mph 19.6 mph N/A   Clear
9:15 AM 48.2 °F - 26.6 °F 43% 30.14 in 10.0 mi WNW 18.4 mph 25.3 mph N/A   Clear
9:35 AM 50.0 °F - 24.8 °F 37% 30.15 in 10.0 mi NW 13.8 mph 24.2 mph N/A   Clear
9:53 AM 50.0 °F - 24.1 °F 36% 30.13 in - NNW 16.1 mph 21.9 mph N/A   Unknown
9:55 AM 50.0 °F - 26.6 °F 40% 30.14 in 10.0 mi NNW 11.5 mph 20.7 mph N/A   Clear
10:15 AM 50.0 °F - 24.8 °F 37% 30.14 in 10.0 mi NNW 15.0 mph - N/A   Clear
10:35 AM 51.8 °F - 23.0 °F 33% 30.14 in 10.0 mi NNW 17.3 mph 28.8 mph N/A   Clear
10:53 AM 54.0 °F - 25.0 °F 33% 30.13 in - WNW 13.8 mph 24.2 mph N/A   Unknown
10:55 AM 53.6 °F - 26.6 °F 35% 30.14 in 10.0 mi NW 15.0 mph 21.9 mph N/A   Clear
11:15 AM 53.6 °F - 24.8 °F 33% 30.14 in 10.0 mi NNW 13.8 mph 20.7 mph N/A   Clear
11:35 AM 53.6 °F - 24.8 °F 33% 30.13 in 10.0 mi NW 11.5 mph 18.4 mph N/A   Clear
11:53 AM 55.0 °F - 23.0 °F 29% 30.12 in - WNW 13.8 mph 24.2 mph N/A   Unknown
11:55 AM 55.4 °F - 24.8 °F 31% 30.12 in 10.0 mi NW 10.4 mph 24.2 mph N/A   Clear
12:15 PM 57.2 °F - 26.6 °F 31% 30.11 in 10.0 mi NW 15.0 mph 19.6 mph N/A   Clear
12:35 PM 59.0 °F - 26.6 °F 29% 30.11 in 10.0 mi West 13.8 mph - N/A   Clear
12:53 PM 57.9 °F - 24.1 °F 27% 30.09 in - NW 13.8 mph 21.9 mph N/A   Unknown
12:55 PM 59.0 °F - 24.8 °F 27% 30.10 in 10.0 mi NNW 11.5 mph 20.7 mph N/A   Clear
1:15 PM 59.0 °F - 26.6 °F 29% 30.09 in 10.0 mi NW 13.8 mph 21.9 mph N/A   Clear
1:35 PM 59.0 °F - 24.8 °F 27% 30.09 in 10.0 mi WNW 17.3 mph 28.8 mph N/A   Clear
1:53 PM 59.0 °F - 23.0 °F 25% 30.07 in - NW 17.3 mph 26.5 mph N/A   Unknown
1:55 PM 59.0 °F - 23.0 °F 25% 30.08 in 10.0 mi NW 15.0 mph 25.3 mph N/A   Clear
2:15 PM 59.0 °F - 24.8 °F 27% 30.07 in 10.0 mi NW 16.1 mph 23.0 mph N/A   Clear
2:35 PM 59.0 °F - 24.8 °F 27% 30.07 in 10.0 mi NNW 16.1 mph 19.6 mph N/A   Clear
2:53 PM 59.0 °F - 24.1 °F 26% 30.05 in - West 19.6 mph 26.5 mph N/A   Unknown
2:55 PM 59.0 °F - 24.8 °F 27% 30.07 in 10.0 mi WNW 18.4 mph 26.5 mph N/A   Clear
3:15 PM 59.0 °F - 26.6 °F 29% 30.07 in 10.0 mi WNW 15.0 mph 20.7 mph N/A   Clear
3:35 PM 59.0 °F - 26.6 °F 29% 30.06 in 10.0 mi NW 13.8 mph 21.9 mph N/A   Clear
3:53 PM 59.0 °F - 26.1 °F 28% 30.06 in - WNW 16.1 mph 25.3 mph N/A   Unknown
3:55 PM 59.0 °F - 26.6 °F 29% 30.07 in 10.0 mi NW 13.8 mph 21.9 mph N/A   Clear
4:15 PM 59.0 °F - 28.4 °F 31% 30.07 in 10.0 mi NW 16.1 mph 20.7 mph N/A   Clear
4:35 PM 59.0 °F - 28.4 °F 31% 30.07 in 10.0 mi NW 15.0 mph 24.2 mph N/A   Clear
4:53 PM 57.9 °F - 26.1 °F 30% 30.06 in - NW 11.5 mph 21.9 mph N/A   Unknown
4:55 PM 59.0 °F - 28.4 °F 31% 30.07 in 10.0 mi NW 13.8 mph 20.7 mph N/A   Clear
5:15 PM 57.2 °F - 28.4 °F 33% 30.08 in 10.0 mi NW 11.5 mph 19.6 mph N/A   Clear
5:35 PM 55.4 °F - 28.4 °F 36% 30.08 in 10.0 mi NW 12.7 mph 20.7 mph N/A   Clear
5:53 PM 55.0 °F - 27.0 °F 34% 30.08 in - NW 10.4 mph 19.6 mph N/A   Unknown
5:55 PM 55.4 °F - 28.4 °F 36% 30.09 in 10.0 mi NW 11.5 mph 21.9 mph N/A   Clear
6:15 PM 53.6 °F - 28.4 °F 38% 30.10 in 10.0 mi NW 9.2 mph - N/A   Clear
6:35 PM 53.6 °F - 30.2 °F 41% 30.10 in 10.0 mi NNW 6.9 mph - N/A   Clear
6:53 PM 51.1 °F - 28.0 °F 41% 30.10 in - NW 6.9 mph - N/A   Unknown
6:55 PM 51.8 °F - 30.2 °F 44% 30.11 in 10.0 mi NW 5.8 mph - N/A   Clear
7:15 PM 50.0 °F - 30.2 °F 47% 30.12 in 10.0 mi North 5.8 mph - N/A   Clear
7:35 PM 50.0 °F - 32.0 °F 50% 30.13 in 10.0 mi NNW 4.6 mph - N/A   Clear
7:53 PM 48.0 °F - 28.9 °F 48% 30.12 in - NW 6.9 mph - N/A   Unknown
7:55 PM 48.2 °F - 32.0 °F 54% 30.13 in 10.0 mi NW 5.8 mph - N/A   Clear
8:15 PM 50.0 °F - 32.0 °F 50% 30.14 in 10.0 mi NNW 5.8 mph - N/A   Clear
8:35 PM 46.4 °F 44.3 °F 32.0 °F 57% 30.15 in 10.0 mi NW 4.6 mph - N/A   Clear
8:53 PM 46.0 °F 43.9 °F 28.9 °F 51% 30.15 in - NW 4.6 mph - N/A   Unknown
8:55 PM 46.4 °F 44.3 °F 32.0 °F 57% 30.15 in 10.0 mi NW 4.6 mph - N/A   Clear
9:35 PM 44.6 °F 42.2 °F 32.0 °F 61% 30.17 in 10.0 mi WNW 4.6 mph - N/A   Clear
9:53 PM 42.1 °F 39.2 °F 30.0 °F 62% 30.17 in - WNW 4.6 mph - N/A   Unknown
9:55 PM 42.8 °F 40.1 °F 32.0 °F 66% 30.18 in 10.0 mi WNW 4.6 mph - N/A   Clear
10:15 PM 42.8 °F 41.1 °F 32.0 °F 66% 30.19 in 10.0 mi West 3.5 mph - N/A   Clear
10:35 PM 42.8 °F 40.1 °F 33.8 °F 70% 30.19 in 10.0 mi NW 4.6 mph - N/A   Clear
10:53 PM 42.1 °F 40.2 °F 30.0 °F 62% 30.18 in - NNW 3.5 mph - N/A   Unknown
10:55 PM 42.8 °F - 33.8 °F 70% 30.19 in 10.0 mi Calm Calm - N/A   Clear
11:15 PM 37.4 °F - 32.0 °F 81% 30.20 in 10.0 mi Calm Calm - N/A   Clear
11:35 PM 37.4 °F 34.9 °F 32.0 °F 81% 30.21 in 10.0 mi WSW 3.5 mph - N/A   Clear
11:53 PM 37.9 °F - 30.9 °F 76% 30.19 in - Calm Calm - N/A   Unknown
11:55 PM 37.4 °F - 33.8 °F 87% 30.21 in 10.0 mi Calm Calm - N/A   Clear